STARLINK-35326, 66031

Orbit data source: Space-Track

STARLINK-35326, 66031 is a payload satellite owned by SpaceX/Seattle (US) in LEO that was launched on Thu, 16 Oct 2025 UTC via an FALCON 9 launch vehicle from the Air Force Eastern Test Range (AFETR). Payload-class satellites include a variety of spacecraft equipped with specific instruments for various scientific and technological missions. These include communications satellites like Starlink; space stations such as the ISS; scientific satellites like the Hubble; Earth observation satellites from companies like Planet Labs, Umbra, and HawkEye 360; GPS; miniature CubeSats for education and research; and military/defense satellites.

Not visible in the next 10 days
Identifier
66031, 2025-232AC
Orbit
LEO
Country
Flag of USUS
Related business
Manufacturer
SpaceX/Seattle
Mission
Operational spacecraft
Bus & Motor
STARLINK V2MO, Unknown motor
Mass
575 kg wet, ~530 kg dry
Launch date (UTC)
2025-10-16 (1 week ago)
Launch vehicle
FALCON 9
Launch site
Air Force Eastern Test Range (AFETR)
Object type
Payload
Rocket body
Debris
Shape & HBR
Unknown shape, 17.7 m
Radar Cross Section
RCS unknown

Expand to show TLE details & history
Last TLE update: 4 hours ago

TLE from 4 hours ago
0 STARLINK-35326
1 66031U 25232AC  25299.16668980 -.01698778  00000-0 -78510-2 0  9992
2 66031  53.1554  13.8782 0001024  77.4873  73.6237 15.85786158  1905
Epoch: 2025-10-26T04:00Z
TLE epoch observation values (Epoch: 2025-10-26T04:00:01.998Z)
Latitude
22.7948°
Longitude
80.83557°
Altitude
314.658 km
Speed
7.723 km/s
True Right ascension
11h 42m 31s
True Declination
22° 39' 51"
Sunlit
Object was in daylight at epoch
Visualization orbit readout
Latitude
Unknown
Longitude
Unknown
Altitude
Unknown
Speed
Unknown
Apparent Right ascension
Unknown
Apparent Declination
Unknown
Sunlit
N/A
Visualization observer readout
Local Sidereal Time
03:42:06
Azimuth
Unknown
Elevation
Unknown
Doppler factor
Unknown
Orbital elements
Apogee altitude
315.061 km
Perigee altitude
313.69 km
Semi-major axis
6,692.512 km
Eccentricity
0.0001
Inclination
53.1554°
RAAN
13.8782°
Arg. of periapsis
77.4873°
True anomaly
73.63496°
Mean anomaly
73.6237°
Eccentric anomaly
73.62933°
Mean motion
3.96424 °/min
Orbital period
90.81 mins
BSTAR
-0.007851
Loading maneuver chart data...
Computing Atmospheric mass density...
Loading historical data...
Loading historical data...
Loading historical data...
Loading historical data...
Loading historical data...
Loading historical data...
Loading historical data...

Documentation

Showing up to 5 results
|